Regional Weather Roundup
Issued by NWS Cleveland, OH

Home | Current Version | Previous Version | Graphics & Text | Print | Product List | Glossary On
Versions: 1 2 3 4 5 6 7 8 9 10 11 12 13 14 15 16 17 18 19 20 21 22 23 24 25 26 27 28 29 30 31 32 33 34 35 36 37 38 39 40 41 42 43 44 45 46 47 48 49 50
000
ASUS41 KCLE 050002
RWRCLE
OHIO REGIONAL WEATHER ROUNDUP
NATIONAL WEATHER SERVICE CLEVELAND, OH
800 PM EDT MON MAY 04 2015

NOTE: "FAIR" INDICATES FEW OR NO CLOUDS BELOW 12,000 FEET WITH NO
SIGNIFICANT WEATHER AND/OR OBSTRUCTIONS TO VISIBILITY.

OHZ001>008-015>018-024>027-034-035-043-044-050100-
   NORTHWEST OHIO

CITY           SKY/WX    TMP DP  RH WIND       PRES   REMARKS
DEFIANCE       MOCLDY    68  61  78 SW8       30.15R
FINDLAY        MOCLDY    66  60  81 S7        30.16R
TOLEDO EXPRESS MOCLDY    68  60  75 SW9       30.14R
TOLEDO EXEC    MOCLDY    70  57  63 SW12      30.15R
LIMA           CLOUDY    65  61  87 CALM      30.17R
$$

OHZ009>014-019>023-028>033-038-089-050100-
   NORTHEAST OHIO

CITY           SKY/WX    TMP DP  RH WIND       PRES   REMARKS
CLE-HOPKINS    CLOUDY    67  58  72 SW10      30.17S
CLE-LAKEFRONT  CLOUDY    68  58  70 SW13      30.14S
CUY CO. ARPT   MOCLDY    68  61  77 SW12      30.16S
LORAIN-ELYRIA  MOCLDY    66  58  75 SW8       30.16S
ASHTABULA      CLOUDY    64  57  78 SW8       30.16S
AKRON-CANTON   CLOUDY    63  60  90 SW6       30.19F FOG
WOOSTER        CLOUDY    63  59  87 W7        30.19S
MANSFIELD      CLOUDY    63  61  93 S5        30.19S
YOUNGSTOWN     LGT RAIN  63  59  87 SW6       30.18S
$$

OHZ042-051>053-060>062-070>072-077>081-050100-
  SOUTHWEST OHIO

CITY           SKY/WX    TMP DP  RH WIND       PRES   REMARKS
CINC-COVINGTON MOCLDY    77  56  48 CALM      30.17R
CINC-LUNKEN    MOCLDY    73  64  73 CALM      30.16R
HAMILTON       CLOUDY    74  62  66 CALM      30.17R
DAYTON         CLOUDY    72  59  63 SW8       30.19R
WRIGHT-PAT AFB MOCLDY    72  58  62 SW5       30.17R
DAYTON GENERAL MOCLDY    75  56  51 SW5       30.17R
WILMINGTON     CLOUDY    74  54  49 W5        30.18R
$$

OHZ036-037-039>041-045>050-054>059-063>069-073>076-082>088-050100-
  CENTRAL AND SOUTHEAST OHIO

CITY           SKY/WX    TMP DP  RH WIND       PRES   REMARKS
COLUMBUS       CLOUDY    64  61  90 E5        30.17F
OSU AIRPORT    CLOUDY    63  62  97 NE3       30.17F FOG
BOLTON FIELD   NOT AVBL
RICKENBACK AFB NOT AVBL
NEWARK         LGT RAIN  64  60  87 W5        30.20R FOG
MARION         CLOUDY    64  61  90 CALM      30.18S FOG
LANCASTER      CLOUDY    67  60  78 N10       30.19R
ZANESVILLE     CLOUDY    64  60  87 N5        30.19S
NEW PHILLY     LGT RAIN  66  63  90 CALM      30.20R FOG
$$


USA.gov is the U.S. government's official web portal to all federal, state and local government web resources and services.